RSW-02

导读

RSW-02是中国于北京时间2021年8月24日08时发射的卫星,该发射任务是我国航天发射活动的重要组成部分。同期中国在酒泉卫星发射中心完成融合试验卫星01/02星发射任务,推动了空间技术融合验证领域的探索发展。RSW-02入轨后按计划开展相关空间运行任务,助力我国航天技术积累与应用发展。

基本信息
目录编号:
49114
目录名称:
RSW-02
国际标识:
2021-076C
轨道中心:
EARTH
卫星名称:
RSW-02
卫星全名:
--
卫星状态:
在轨 (已飞行1847 天)
发射日期:
2021-08-24 UTC
国别 :
中国 (CN)
星等 :
--
该卫星已列入 空间交会检测服务 Space Conjunction Data Service (SCDS) ,当前飞行风险评估等级: 无高风险
轨道信息
数据来源 国际轨道数据 AOE轨道数据
星历时间 2026-09-14T06:23:42+0800
6小时前
查看轨道信息
2026-09-12T23:00:00+0800
1天前
查看轨道信息
半长轴 7476.786km 7476.782km
偏心率 0.00187 0.0018727
轨道倾角 86.408° 86.407°
近地点辐角 168.615° 172.200°
升交点赤经 126.126° 126.593°
平近点角 191.542° 347.740°
近地点 1084.667km 1084.643km
远地点 1112.631km 1112.647km
周期 107.234分钟 107.234分钟
每日圈数 13.428589 13.428601
详细信息
使用方式:
暂无
2D轨道图
3D轨道图
轨道高度分析图
轨道倾角分析图
轨道综合分析图
查看轨道综合分析图
交会数据列表
事件ID 空间交会对象 最接近时刻(TCA) 交会距离 交会风险概率(CRP) 交会风险指数(CRI) 操作
CDM_260916-092303-757104-911421
RSW-02 (49114)
2026-09-16T
09:23:22+0000
1.239 km
极远距离
1.266948E-5 中风险 0.57
与全量物体交会距离演化趋势 订阅飞行安全评估服务
与全量物体交会风险概率演化趋势 订阅飞行安全评估服务